Location: Hurecourt
(47.9030°N, 6.0653°E)
Time: 04:45:47
(UTC+00:00)

CZ-4C R/B - Pass Details

Date: 14 July 2020
Orbit: 632 x 1370 km, 63.4° (Epoch: 06 August)

Event Time Altitude Azimuth Distance (km) Brightness Sun altitude
Rises 00:15:33 0° 311° (NW) 3,942 6.1 -20.0°
Reaches altitude 10° 00:18:39 10° 299° (WNW) 3,092 5.3 -20.0°
Maximum altitude 00:24:25 25° 249° (WSW) 2,341 4.2 -19.8°
Enters shadow 00:26:33 22° 227° (SW) 2,512 4.2 -19.7°
